Terminal Aerodrome Forecast
Issued by NWS Key West, FL

Home | Current Version | Previous Version | Text Only | Print | Product List | Glossary On
Versions: 1 2 3 4 5 6 7 8 9 10 11 12 13 14 15 16 17 18 19 20 21 22 23 24 25 26 27 28 29 30 31 32 33 34 35 36 37 38 39 40
000
FTUS42 KKEY 272328
TAFEYW
TAF
KEYW 272328Z 2800/2824 28011G20KT P6SM VCTS SCT015CB BKN040 BKN090
      TEMPO 2800/2804 3SM SHRA BKN015
     FM280500 33015G24KT P6SM SCT025 BKN050
     FM280800 35013G22KT P6SM FEW030
     FM281100 01013G21KT P6SM SCT035=

USA.gov is the U.S. government's official web portal to all federal, state and local government web resources and services.